TimeCST,TemperatureF,Dew PointF,Humidity,Sea Level PressureIn,VisibilityMPH,Wind Direction,Wind SpeedMPH,Gust SpeedMPH,PrecipitationIn,Events,Conditions,WindDirDegrees,DateUTC
12:15 AM,32.0,10.4,41,29.99,10.0,South,16.1,24.2,N/A,,Clear,190,2014-01-30 06:15:00
12:35 AM,32.0,10.4,41,29.97,10.0,South,17.3,23.0,N/A,,Clear,190,2014-01-30 06:35:00
12:55 AM,32.0,10.4,41,29.96,10.0,South,15.0,21.9,N/A,,Clear,180,2014-01-30 06:55:00
1:15 AM,32.0,10.4,41,29.95,10.0,South,15.0,19.6,N/A,,Clear,190,2014-01-30 07:15:00
1:35 AM,32.0,10.4,41,29.94,10.0,South,16.1,23.0,N/A,,Clear,190,2014-01-30 07:35:00
1:55 AM,32.0,10.4,41,29.92,10.0,South,17.3,28.8,N/A,,Clear,190,2014-01-30 07:55:00
2:15 AM,32.0,10.4,41,29.92,10.0,South,18.4,21.9,N/A,,Clear,180,2014-01-30 08:15:00
2:35 AM,32.0,10.4,41,29.90,10.0,South,17.3,24.2,N/A,,Clear,180,2014-01-30 08:35:00
2:55 AM,32.0,10.4,41,29.88,10.0,South,17.3,27.6,N/A,,Clear,190,2014-01-30 08:55:00
3:15 AM,32.0,10.4,41,29.87,10.0,South,16.1,24.2,N/A,,Clear,190,2014-01-30 09:15:00
3:35 AM,32.0,10.4,41,29.88,10.0,South,15.0,21.9,N/A,,Clear,190,2014-01-30 09:35:00
3:55 AM,32.0,10.4,41,29.87,10.0,South,12.7,21.9,N/A,,Clear,190,2014-01-30 09:55:00
4:15 AM,32.0,10.4,41,29.86,10.0,South,12.7,18.4,N/A,,Clear,190,2014-01-30 10:15:00
4:35 AM,32.0,10.4,41,29.86,10.0,South,13.8,20.7,N/A,,Clear,190,2014-01-30 10:35:00
4:55 AM,32.0,10.4,41,29.85,10.0,South,16.1,20.7,N/A,,Clear,190,2014-01-30 10:55:00
5:15 AM,33.8,8.6,35,29.84,10.0,South,15.0,21.9,N/A,,Clear,190,2014-01-30 11:15:00
5:35 AM,33.8,8.6,35,29.82,10.0,South,18.4,24.2,N/A,,Clear,190,2014-01-30 11:35:00
5:55 AM,33.8,8.6,35,29.81,10.0,South,20.7,27.6,N/A,,Clear,190,2014-01-30 11:55:00
6:15 AM,33.8,10.4,38,29.80,10.0,South,19.6,26.5,N/A,,Clear,190,2014-01-30 12:15:00
6:35 AM,33.8,10.4,38,29.81,10.0,South,21.9,27.6,N/A,,Clear,190,2014-01-30 12:35:00
6:55 AM,33.8,10.4,38,29.77,10.0,South,21.9,31.1,N/A,,Clear,180,2014-01-30 12:55:00
7:15 AM,35.6,10.4,35,29.77,10.0,South,23.0,33.4,N/A,,Clear,190,2014-01-30 13:15:00
7:35 AM,35.6,10.4,35,29.77,10.0,South,23.0,29.9,N/A,,Clear,190,2014-01-30 13:35:00
7:55 AM,35.6,10.4,35,29.76,10.0,South,21.9,31.1,N/A,,Clear,190,2014-01-30 13:55:00
8:15 AM,35.6,12.2,38,29.74,10.0,South,20.7,29.9,N/A,,Clear,180,2014-01-30 14:15:00
8:35 AM,35.6,12.2,38,29.74,10.0,South,24.2,33.4,N/A,,Clear,190,2014-01-30 14:35:00
8:55 AM,37.4,12.2,36,29.78,10.0,SSW,17.3,25.3,N/A,,Clear,200,2014-01-30 14:55:00
9:15 AM,37.4,12.2,36,29.78,10.0,SSW,19.6,29.9,N/A,,Clear,200,2014-01-30 15:15:00
9:35 AM,37.4,14.0,38,29.79,10.0,SSW,18.4,27.6,N/A,,Clear,210,2014-01-30 15:35:00
9:55 AM,39.2,14.0,36,29.77,10.0,SSW,17.3,25.3,N/A,,Clear,200,2014-01-30 15:55:00
10:15 AM,41.0,14.0,33,29.78,10.0,SSW,18.4,25.3,N/A,,Clear,210,2014-01-30 16:15:00
10:35 AM,42.8,14.0,31,29.79,10.0,SW,18.4,27.6,N/A,,Clear,220,2014-01-30 16:35:00
10:55 AM,44.6,15.8,31,29.79,10.0,SW,19.6,27.6,N/A,,Clear,230,2014-01-30 16:55:00
11:15 AM,42.8,15.8,34,29.80,10.0,SW,26.5,33.4,N/A,,Clear,230,2014-01-30 17:15:00
11:35 AM,42.8,17.6,36,29.78,10.0,SSW,20.7,32.2,N/A,,Clear,210,2014-01-30 17:35:00
11:55 AM,42.8,17.6,36,29.79,10.0,SW,16.1,28.8,N/A,,Clear,220,2014-01-30 17:55:00
12:15 PM,44.6,17.6,34,29.78,10.0,SW,23.0,29.9,N/A,,Clear,220,2014-01-30 18:15:00
12:35 PM,44.6,17.6,34,29.78,10.0,SW,24.2,31.1,N/A,,Clear,230,2014-01-30 18:35:00
12:55 PM,44.6,17.6,34,29.79,10.0,SW,20.7,26.5,N/A,,Clear,230,2014-01-30 18:55:00
1:15 PM,44.6,17.6,34,29.78,10.0,SW,15.0,28.8,N/A,,Clear,230,2014-01-30 19:15:00
1:35 PM,44.6,17.6,34,29.79,10.0,SW,16.1,27.6,N/A,,Clear,230,2014-01-30 19:35:00
1:55 PM,44.6,19.4,37,29.80,10.0,SW,16.1,23.0,N/A,,Clear,230,2014-01-30 19:55:00
2:15 PM,44.6,19.4,37,29.80,10.0,WSW,19.6,24.2,N/A,,Clear,240,2014-01-30 20:15:00
2:35 PM,46.4,19.4,34,29.80,10.0,SW,20.7,24.2,N/A,,Mostly Cloudy,230,2014-01-30 20:35:00
2:55 PM,46.4,19.4,34,29.81,10.0,WSW,16.1,21.9,N/A,,Scattered Clouds,240,2014-01-30 20:55:00
3:15 PM,46.4,19.4,34,29.80,10.0,WSW,15.0,-,N/A,,Clear,240,2014-01-30 21:15:00
3:35 PM,46.4,19.4,34,29.82,10.0,WSW,13.8,19.6,N/A,,Mostly Cloudy,240,2014-01-30 21:35:00
3:55 PM,44.6,19.4,37,29.83,10.0,WSW,12.7,-,N/A,,Overcast,240,2014-01-30 21:55:00
4:15 PM,46.4,19.4,34,29.84,10.0,WSW,11.5,17.3,N/A,,Mostly Cloudy,250,2014-01-30 22:15:00
4:35 PM,44.6,19.4,37,29.85,10.0,WSW,10.4,-,N/A,,Overcast,250,2014-01-30 22:35:00
4:55 PM,44.6,19.4,37,29.85,10.0,SW,9.2,-,N/A,,Overcast,230,2014-01-30 22:55:00
5:15 PM,44.6,19.4,37,29.85,10.0,SW,8.1,-,N/A,,Overcast,230,2014-01-30 23:15:00
5:35 PM,42.8,19.4,39,29.85,10.0,SSW,5.8,-,N/A,,Scattered Clouds,210,2014-01-30 23:35:00
5:55 PM,39.2,19.4,45,29.87,10.0,SW,5.8,-,N/A,,Clear,220,2014-01-30 23:55:00
6:15 PM,41.0,19.4,42,29.88,10.0,SW,5.8,-,N/A,,Clear,230,2014-01-31 00:15:00
6:35 PM,39.2,19.4,45,29.89,10.0,SW,5.8,-,N/A,,Clear,230,2014-01-31 00:35:00
6:55 PM,39.2,19.4,45,29.90,10.0,SW,4.6,-,N/A,,Clear,230,2014-01-31 00:55:00
7:15 PM,39.2,19.4,45,29.90,10.0,Calm,Calm,-,N/A,,Clear,0,2014-01-31 01:15:00
7:35 PM,37.4,19.4,48,29.91,10.0,South,3.5,-,N/A,,Partly Cloudy,190,2014-01-31 01:35:00
7:55 PM,39.2,21.2,49,29.92,10.0,SSW,4.6,-,N/A,,Partly Cloudy,200,2014-01-31 01:55:00
8:15 PM,39.2,19.4,45,29.92,10.0,Calm,Calm,-,N/A,,Partly Cloudy,0,2014-01-31 02:15:00
8:35 PM,37.4,19.4,48,29.92,10.0,Calm,Calm,-,N/A,,Clear,0,2014-01-31 02:35:00
8:55 PM,37.4,19.4,48,29.92,10.0,Calm,Calm,-,N/A,,Clear,0,2014-01-31 02:55:00
9:15 PM,33.8,19.4,56,29.92,10.0,Calm,Calm,-,N/A,,Clear,0,2014-01-31 03:15:00
9:35 PM,33.8,21.2,60,29.93,10.0,Calm,Calm,-,N/A,,Mostly Cloudy,0,2014-01-31 03:35:00
9:55 PM,35.6,23.0,60,29.93,10.0,North,8.1,-,N/A,,Mostly Cloudy,350,2014-01-31 03:55:00
10:15 PM,37.4,23.0,56,29.93,10.0,NNE,10.4,-,N/A,,Mostly Cloudy,20,2014-01-31 04:15:00
10:35 PM,37.4,24.8,60,29.94,10.0,NNE,16.1,-,N/A,,Mostly Cloudy,20,2014-01-31 04:35:00
10:55 PM,35.6,24.8,65,29.96,10.0,NNE,10.4,-,N/A,,Mostly Cloudy,30,2014-01-31 04:55:00
11:15 PM,35.6,24.8,65,29.96,10.0,NNE,12.7,-,N/A,,Overcast,20,2014-01-31 05:15:00
11:35 PM,33.8,23.0,65,29.96,10.0,NNE,13.8,-,N/A,,Scattered Clouds,20,2014-01-31 05:35:00
11:55 PM,33.8,23.0,65,29.97,10.0,NNE,11.5,-,N/A,,Clear,20,2014-01-31 05:55:00